| time (UTC) | temp F | wind direction | speed knots | gust knots | rain 1hr in | rain 24hr in | rain mn in | humidity % | barometer mb |
| 20260901205158 | 68 | 199 | 0.9 | 0.9 | 0.00 | 0.00 | 0.00 | 91 | 1018.5 |
| 20260901204653 | 68 | 92 | 1.7 | 2.6 | 0.00 | 0.00 | 0.00 | 90 | 1018.5 |
| 20260901204149 | 68 | 71 | 1.7 | 2.6 | 0.00 | 0.00 | 0.00 | 90 | 1018.5 |
| 20260901203649 | 68 | 278 | 1.7 | 1.7 | 0.00 | 0.00 | 0.00 | 90 | 1018.3 |
| 20260901203144 | 68 | 28 | 1.7 | 1.7 | 0.00 | 0.00 | 0.00 | 90 | 1018.4 |
| 20260901202643 | 69 | 21 | 2.6 | 2.6 | 0.00 | 0.00 | 0.00 | 89 | 1018.2 |
| 20260901202139 | 69 | 105 | 1.7 | 1.7 | 0.00 | 0.00 | 0.00 | 89 | 1018.2 |
| 20260901201635 | 69 | 333 | 2.6 | 2.6 | 0.00 | 0.00 | 0.00 | 88 | 1018.1 |
| 20260901201133 | 70 | 66 | 2.6 | 5.2 | 0.00 | 0.00 | 0.00 | 87 | 1018.1 |
| 20260901200627 | 71 | 10 | 4.3 | 5.2 | 0.00 | 0.00 | 0.00 | 86 | 1018.1 |
| 20260901200123 | 70 | 224 | 0.0 | 0.9 | 0.00 | 0.00 | 0.00 | 87 | 1018.3 |
| 20260901195620 | 71 | 314 | 1.7 | 1.7 | 0.00 | 0.00 | 0.00 | 86 | 1018.1 |
| 20260901195115 | 70 | 49 | 3.5 | 6.1 | 0.00 | 0.00 | 0.00 | 88 | 1018.2 |
| 20260901194610 | 69 | 345 | 0.0 | 0.9 | 0.00 | 0.00 | 0.00 | 86 | 1018.2 |
| 20260901194105 | 69 | 282 | 0.0 | 0.9 | 0.00 | 0.00 | 0.00 | 87 | 1018.1 |
| 20260901193601 | 69 | 0 | 2.6 | 3.5 | 0.00 | 0.00 | 0.00 | 86 | 1018.3 |
| 20260901193055 | 69 | 337 | 0.9 | 0.9 | 0.00 | 0.00 | 0.00 | 86 | 1018.1 |
| 20260901192550 | 70 | 198 | 1.7 | 1.7 | 0.00 | 0.00 | 0.00 | 84 | 1018.3 |
| 20260901192045 | 70 | 50 | 0.9 | 0.9 | 0.00 | 0.00 | 0.00 | 82 | 1018.3 |
| 20260901191542 | 70 | 189 | 2.6 | 2.6 | 0.00 | 0.00 | 0.00 | 81 | 1018.3 |
| 20260901191037 | 71 | 54 | 0.9 | 0.9 | 0.00 | 0.00 | 0.00 | 80 | 1018.4 |
| 20260901190532 | 71 | 286 | 0.9 | 1.7 | 0.00 | 0.00 | 0.00 | 79 | 1018.3 |
| 20260901190031 | 72 | 289 | 0.9 | 0.9 | 0.00 | 0.00 | 0.00 | 77 | 1018.5 |
| 20260901185525 | 72 | 324 | 1.7 | 2.6 | 0.00 | 0.00 | 0.00 | 76 | 1018.3 |
| 20260901185024 | 73 | 188 | 0.9 | 1.7 | 0.00 | 0.00 | 0.00 | 75 | 1018.2 |
| 20260901184519 | 73 | 18 | 1.7 | 2.6 | 0.00 | 0.00 | 0.00 | 73 | 1018.2 |
| 20260901184015 | 74 | 258 | 1.7 | 2.6 | 0.00 | 0.00 | 0.00 | 71 | 1018.3 |
| 20260901183509 | 74 | 148 | 2.6 | 3.5 | 0.00 | 0.00 | 0.00 | 67 | 1018.3 |
| 20260901183005 | 76 | 51 | 1.7 | 3.5 | 0.00 | 0.00 | 0.00 | 67 | 1018.1 |
| 20260901182501 | 75 | 248 | 1.7 | 3.5 | 0.00 | 0.00 | 0.00 | 67 | 1018.0 |
| 20260901182000 | 76 | 304 | 0.0 | 0.0 | 0.00 | 0.00 | 0.00 | 67 | 1018.1 |
| 20260901181455 | 74 | 324 | 0.0 | 0.0 | 0.00 | 0.00 | 0.00 | 67 | 1018.0 |
| 20260901180954 | 73 | 352 | 0.9 | 0.9 | 0.00 | 0.00 | 0.00 | 63 | 1018.0 |
| 20260901180453 | 74 | 337 | 1.7 | 2.6 | 0.00 | 0.00 | 0.00 | 66 | 1018.0 |
| 20260901175951 | 74 | 308 | 0.0 | 0.0 | 0.00 | 0.00 | 0.00 | 64 | 1018.1 |
| 20260901175446 | 75 | 343 | 2.6 | 2.6 | 0.00 | 0.00 | 0.00 | 61 | 1017.8 |
| 20260901174942 | 74 | 245 | 0.9 | 0.9 | 0.00 | 0.00 | 0.00 | 62 | 1018.0 |
| 20260901174437 | 74 | 227 | 0.9 | 0.9 | 0.00 | 0.00 | 0.00 | 63 | 1018.1 |
| 20260901173933 | 73 | 330 | 0.9 | 0.9 | 0.00 | 0.00 | 0.00 | 67 | 1017.8 |
| 20260901173428 | 73 | 350 | 0.0 | 0.9 | 0.00 | 0.00 | 0.00 | 65 | 1018.3 |
| 20260901172924 | 73 | 101 | 0.0 | 0.9 | 0.00 | 0.00 | 0.00 | 66 | 1018.0 |
| 20260901172419 | 74 | 56 | 0.9 | 1.7 | 0.00 | 0.00 | 0.00 | 64 | 1018.1 |
| 20260901171917 | 75 | 172 | 0.0 | 0.9 | 0.00 | 0.00 | 0.00 | 64 | 1017.9 |
| 20260901171416 | 75 | 34 | 1.7 | 1.7 | 0.00 | 0.00 | 0.00 | 66 | 1018.0 |
| 20260901170914 | 75 | 349 | 1.7 | 1.7 | 0.00 | 0.00 | 0.00 | 62 | 1017.9 |
| 20260901170404 | 74 | 11 | 0.0 | 0.9 | 0.00 | 0.00 | 0.00 | 65 | 1018.1 |
| 20260901165903 | 73 | 324 | 0.0 | 0.0 | 0.00 | 0.00 | 0.00 | 65 | 1018.1 |
| 20260901165358 | 74 | 142 | 0.9 | 1.7 | 0.00 | 0.00 | 0.00 | 66 | 1018.2 |
| 20260901164855 | 73 | 268 | 0.9 | 0.9 | 0.00 | 0.00 | 0.00 | 66 | 1018.1 |
| 20260901164350 | 72 | 48 | 0.9 | 1.7 | 0.00 | 0.00 | 0.00 | 68 | 1018.3 |
| 20260901163849 | 72 | 16 | 1.7 | 1.7 | 0.00 | 0.00 | 0.00 | 68 | 1018.3 |
| 20260901163344 | 71 | 62 | 1.7 | 3.5 | 0.00 | 0.00 | 0.00 | 69 | 1018.2 |
| 20260901162839 | 71 | 40 | 1.7 | 2.6 | 0.00 | 0.00 | 0.00 | 70 | 1018.4 |
| 20260901162338 | 71 | 277 | 0.9 | 0.9 | 0.00 | 0.00 | 0.00 | 70 | 1018.2 |
| 20260901161832 | 71 | 348 | 0.0 | 0.0 | 0.00 | 0.00 | 0.00 | 72 | 1018.3 |
| 20260901161327 | 71 | 40 | 0.0 | 0.9 | 0.00 | 0.00 | 0.00 | 71 | 1018.3 |
| 20260901160822 | 71 | 46 | 1.7 | 1.7 | 0.00 | 0.00 | 0.00 | 70 | 1018.3 |
| 20260901160319 | 71 | 353 | 1.7 | 1.7 | 0.00 | 0.00 | 0.00 | 69 | 1018.4 |
| 20260901155817 | 71 | 25 | 1.7 | 2.6 | 0.00 | 0.00 | 0.00 | 68 | 1018.3 |
| 20260901155312 | 71 | 70 | 1.7 | 1.7 | 0.00 | 0.00 | 0.00 | 69 | 1018.4 |
| 20260901154809 | 71 | 351 | 0.9 | 0.9 | 0.00 | 0.00 | 0.00 | 70 | 1018.5 |
| 20260901154308 | 70 | 226 | 0.9 | 0.9 | 0.00 | 0.00 | 0.00 | 70 | 1018.5 |
| 20260901153803 | 70 | 90 | 0.9 | 0.9 | 0.00 | 0.00 | 0.00 | 70 | 1018.4 |
| 20260901153303 | 71 | 17 | 1.7 | 2.6 | 0.00 | 0.00 | 0.00 | 68 | 1018.5 |
| 20260901152801 | 71 | 324 | 0.9 | 0.9 | 0.00 | 0.00 | 0.00 | 71 | 1018.4 |
| 20260901152301 | 71 | 161 | 0.9 | 0.9 | 0.00 | 0.00 | 0.00 | 71 | 1018.5 |
| 20260901151756 | 69 | 302 | 0.0 | 0.0 | 0.00 | 0.00 | 0.00 | 73 | 1018.4 |
| 20260901151255 | 68 | 335 | 0.0 | 0.0 | 0.00 | 0.00 | 0.00 | 73 | 1018.2 |
| 20260901150750 | 68 | 311 | 0.0 | 0.9 | 0.00 | 0.00 | 0.00 | 75 | 1018.2 |
| 20260901150248 | 68 | 329 | 0.0 | 0.9 | 0.00 | 0.00 | 0.00 | 74 | 1018.0 |
| 20260901145746 | 68 | 156 | 0.9 | 0.9 | 0.00 | 0.00 | 0.00 | 74 | 1017.9 |
| 20260901145240 | 69 | 340 | 1.7 | 2.6 | 0.00 | 0.00 | 0.00 | 73 | 1018.0 |
| 20260901144735 | 69 | 0 | 0.9 | 1.7 | 0.00 | 0.00 | 0.00 | 75 | 1018.0 |
| 20260901144231 | 68 | 1 | 1.7 | 1.7 | 0.00 | 0.00 | 0.00 | 73 | 1018.1 |
| 20260901143727 | 66 | 298 | 0.9 | 0.9 | 0.00 | 0.00 | 0.00 | 80 | 1018.1 |
| 20260901143222 | 66 | 348 | 1.7 | 1.7 | 0.00 | 0.00 | 0.00 | 77 | 1018.1 |
| 20260901142718 | 66 | 54 | 1.7 | 2.6 | 0.00 | 0.00 | 0.00 | 78 | 1018.2 |
| 20260901142217 | 66 | 42 | 1.7 | 2.6 | 0.00 | 0.00 | 0.00 | 76 | 1018.5 |
| 20260901141712 | 65 | 26 | 0.9 | 1.7 | 0.00 | 0.00 | 0.00 | 79 | 1018.4 |
| 20260901141207 | 65 | 77 | 1.7 | 3.5 | 0.00 | 0.00 | 0.00 | 79 | 1018.5 |
| 20260901140706 | 64 | 318 | 0.0 | 0.0 | 0.00 | 0.00 | 0.00 | 82 | 1018.8 |
| 20260901140204 | 64 | 27 | 0.0 | 0.0 | 0.00 | 0.00 | 0.00 | 83 | 1018.9 |
| 20260901135659 | 63 | 310 | 0.0 | 0.0 | 0.00 | 0.00 | 0.00 | 83 | 1018.7 |
| 20260901135154 | 62 | 94 | 0.9 | 0.9 | 0.00 | 0.00 | 0.00 | 82 | 1018.8 |
| 20260901134650 | 62 | 337 | 0.0 | 0.0 | 0.00 | 0.00 | 0.00 | 85 | 1018.8 |
| 20260901134145 | 62 | 313 | 0.0 | 0.0 | 0.00 | 0.00 | 0.00 | 86 | 1018.6 |
| 20260901133644 | 61 | 315 | 0.0 | 0.0 | 0.00 | 0.00 | 0.00 | 86 | 1018.7 |
| 20260901133143 | 61 | 35 | 0.0 | 0.9 | 0.00 | 0.00 | 0.00 | 86 | 1018.8 |
| 20260901132637 | 61 | 304 | 0.0 | 0.0 | 0.00 | 0.00 | 0.00 | 87 | 1018.9 |
| 20260901132132 | 60 | 311 | 0.0 | 0.0 | 0.00 | 0.00 | 0.00 | 89 | 1018.8 |
| 20260901131631 | 60 | 304 | 0.0 | 0.0 | 0.00 | 0.00 | 0.00 | 88 | 1018.8 |
| 20260901131126 | 60 | 296 | 0.9 | 0.9 | 0.00 | 0.00 | 0.00 | 89 | 1018.9 |
| 20260901130621 | 59 | 317 | 0.9 | 0.9 | 0.00 | 0.00 | 0.00 | 90 | 1018.8 |
| 20260901130119 | 59 | 322 | 0.0 | 0.0 | 0.00 | 0.00 | 0.00 | 90 | 1018.8 |
| 20260901125617 | 59 | 331 | 0.0 | 0.0 | 0.00 | 0.00 | 0.00 | 91 | 1018.6 |
| 20260901125108 | 59 | 321 | 0.0 | 0.0 | 0.00 | 0.00 | 0.00 | 92 | 1018.8 |
| 20260901124607 | 58 | 1 | 0.9 | 0.9 | 0.00 | 0.00 | 0.00 | 92 | 1019.0 |
| 20260901124102 | 58 | 324 | 0.0 | 0.9 | 0.00 | 0.00 | 0.00 | 92 | 1018.9 |
| 20260901123557 | 58 | 8 | 1.7 | 1.7 | 0.00 | 0.00 | 0.00 | 93 | 1019.1 |
| 20260901123056 | 58 | 317 | 0.0 | 0.0 | 0.00 | 0.00 | 0.00 | 94 | 1018.9 |
| 20260901122555 | 57 | 301 | 0.0 | 0.0 | 0.00 | 0.00 | 0.00 | 99 | 1018.8 |
| 20260901122055 | 56 | 292 | 0.0 | 0.0 | 0.00 | 0.00 | 0.00 | 99 | 1018.6 |
| 20260901121550 | 56 | 321 | 0.0 | 0.0 | 0.00 | 0.00 | 0.00 | 99 | 1018.8 |
| 20260901121045 | 56 | 288 | 0.0 | 0.0 | 0.00 | 0.00 | 0.00 | 99 | 1018.6 |
| 20260901120545 | 56 | 296 | 0.0 | 0.0 | 0.00 | 0.00 | 0.00 | 99 | 1018.7 |
| 20260901120041 | 56 | 296 | 0.0 | 0.0 | 0.00 | 0.00 | 0.00 | 99 | 1018.5 |
| 20260901115536 | 55 | 302 | 0.0 | 0.0 | 0.00 | 0.00 | 0.00 | 99 | 1018.7 |
| 20260901115033 | 55 | 302 | 0.0 | 0.0 | 0.00 | 0.00 | 0.00 | 99 | 1018.6 |
| 20260901114528 | 55 | 301 | 0.0 | 0.0 | 0.00 | 0.00 | 0.00 | 99 | 1018.5 |
| 20260901114026 | 55 | 310 | 0.0 | 0.0 | 0.00 | 0.00 | 0.00 | 99 | 1018.6 |
| 20260901113525 | 54 | 312 | 0.0 | 0.0 | 0.00 | 0.00 | 0.00 | 99 | 1018.5 |
| 20260901113016 | 54 | 307 | 0.0 | 0.0 | 0.00 | 0.00 | 0.00 | 99 | 1018.7 |
| 20260901112510 | 54 | 307 | 0.0 | 0.0 | 0.00 | 0.00 | 0.00 | 99 | 1018.4 |
| 20260901112005 | 53 | 310 | 0.0 | 0.0 | 0.00 | 0.00 | 0.00 | 99 | 1018.4 |
| 20260901111504 | 53 | 303 | 0.0 | 0.0 | 0.00 | 0.00 | 0.00 | 99 | 1018.3 |
| 20260901111003 | 53 | 303 | 0.0 | 0.0 | 0.00 | 0.00 | 0.00 | 99 | 1018.4 |
| 20260901110458 | 53 | 301 | 0.0 | 0.0 | 0.00 | 0.00 | 0.00 | 99 | 1018.3 |
| 20260901105954 | 53 | 312 | 0.0 | 0.0 | 0.00 | 0.00 | 0.00 | 99 | 1018.2 |
| 20260901105450 | 53 | 311 | 0.0 | 0.0 | 0.00 | 0.00 | 0.00 | 99 | 1018.3 |
| 20260901104950 | 53 | 311 | 0.0 | 0.0 | 0.00 | 0.00 | 0.00 | 99 | 1018.2 |
| 20260901104446 | 53 | 305 | 0.0 | 0.0 | 0.00 | 0.00 | 0.00 | 99 | 1018.3 |
| 20260901103940 | 52 | 303 | 0.0 | 0.0 | 0.00 | 0.00 | 0.00 | 99 | 1018.1 |
| 20260901103435 | 53 | 303 | 0.0 | 0.0 | 0.00 | 0.00 | 0.00 | 99 | 1017.9 |
| 20260901102930 | 53 | 302 | 0.0 | 0.0 | 0.00 | 0.00 | 0.00 | 99 | 1018.0 |
| 20260901102425 | 52 | 302 | 0.0 | 0.0 | 0.00 | 0.00 | 0.00 | 99 | 1017.8 |
| 20260901101919 | 51 | 312 | 0.0 | 0.0 | 0.00 | 0.00 | 0.00 | 99 | 1017.7 |
| 20260901101415 | 51 | 309 | 0.0 | 0.0 | 0.00 | 0.00 | 0.00 | 99 | 1017.8 |
| 20260901100914 | 51 | 312 | 0.0 | 0.0 | 0.00 | 0.00 | 0.00 | 99 | 1017.9 |
| 20260901100408 | 51 | 320 | 0.0 | 0.0 | 0.00 | 0.00 | 0.00 | 99 | 1017.8 |
| 20260901095902 | 51 | 312 | 0.0 | 0.0 | 0.00 | 0.00 | 0.00 | 99 | 1017.9 |
| 20260901095401 | 51 | 316 | 0.0 | 0.0 | 0.00 | 0.00 | 0.00 | 99 | 1017.9 |
| 20260901094854 | 51 | 308 | 0.0 | 0.0 | 0.00 | 0.00 | 0.00 | 99 | 1018.0 |
| 20260901094349 | 51 | 313 | 0.0 | 0.0 | 0.00 | 0.00 | 0.00 | 99 | 1017.9 |
| 20260901093843 | 51 | 317 | 0.0 | 0.0 | 0.00 | 0.00 | 0.00 | 99 | 1017.9 |
| 20260901093343 | 50 | 313 | 0.0 | 0.0 | 0.00 | 0.00 | 0.00 | 99 | 1017.9 |
| 20260901092839 | 50 | 316 | 0.0 | 0.0 | 0.00 | 0.00 | 0.00 | 99 | 1017.8 |
| 20260901092334 | 50 | 317 | 0.0 | 0.0 | 0.00 | 0.00 | 0.00 | 99 | 1017.8 |
| 20260901091830 | 50 | 317 | 0.0 | 0.0 | 0.00 | 0.00 | 0.00 | 99 | 1018.0 |
| 20260901091324 | 50 | 317 | 0.0 | 0.0 | 0.00 | 0.00 | 0.00 | 99 | 1018.0 |
| 20260901090819 | 50 | 317 | 0.0 | 0.0 | 0.00 | 0.00 | 0.00 | 99 | 1018.0 |
| 20260901090314 | 50 | 317 | 0.0 | 0.0 | 0.00 | 0.00 | 0.00 | 99 | 1018.0 |
| 20260901085810 | 50 | 317 | 0.0 | 0.0 | 0.00 | 0.00 | 0.00 | 99 | 1017.8 |
| 20260901085306 | 50 | 317 | 0.0 | 0.0 | 0.00 | 0.00 | 0.00 | 99 | 1017.9 |
| 20260901084802 | 50 | 317 | 0.0 | 0.0 | 0.00 | 0.00 | 0.00 | 99 | 1018.1 |
| 20260901084258 | 49 | 317 | 0.0 | 0.0 | 0.00 | 0.00 | 0.00 | 99 | 1017.9 |
| 20260901083757 | 50 | 317 | 0.0 | 0.0 | 0.00 | 0.00 | 0.00 | 99 | 1017.9 |
| 20260901083257 | 50 | 317 | 0.0 | 0.0 | 0.00 | 0.00 | 0.00 | 99 | 1017.9 |
| 20260901082755 | 49 | 317 | 0.0 | 0.0 | 0.00 | 0.00 | 0.00 | 99 | 1017.9 |
| 20260901082251 | 50 | 317 | 0.0 | 0.0 | 0.00 | 0.00 | 0.00 | 99 | 1017.8 |
| 20260901081746 | 50 | 317 | 0.0 | 0.0 | 0.00 | 0.00 | 0.00 | 99 | 1018.1 |
| 20260901081246 | 50 | 317 | 0.0 | 0.0 | 0.00 | 0.00 | 0.00 | 99 | 1018.1 |
| 20260901080741 | 50 | 317 | 0.0 | 0.0 | 0.00 | 0.00 | 0.00 | 99 | 1017.8 |
| 20260901080235 | 50 | 317 | 0.0 | 0.0 | 0.00 | 0.00 | 0.00 | 99 | 1018.0 |
| 20260901075734 | 50 | 319 | 0.0 | 0.0 | 0.00 | 0.00 | 0.00 | 99 | 1018.0 |
| 20260901075230 | 50 | 325 | 0.0 | 0.0 | 0.00 | 0.00 | 0.00 | 99 | 1018.0 |
| 20260901074724 | 49 | 326 | 0.0 | 0.0 | 0.00 | 0.00 | 0.00 | 99 | 1018.0 |
| 20260901074220 | 49 | 326 | 0.0 | 0.0 | 0.00 | 0.00 | 0.00 | 99 | 1018.0 |
| 20260901073716 | 50 | 326 | 0.0 | 0.0 | 0.00 | 0.00 | 0.00 | 99 | 1018.0 |
| 20260901073211 | 50 | 321 | 0.0 | 0.0 | 0.00 | 0.00 | 0.00 | 99 | 1018.0 |
| 20260901072706 | 50 | 316 | 0.0 | 0.0 | 0.00 | 0.00 | 0.00 | 99 | 1018.1 |
| 20260901072201 | 50 | 316 | 0.0 | 0.0 | 0.00 | 0.00 | 0.00 | 99 | 1018.2 |
| 20260901071700 | 50 | 316 | 0.0 | 0.0 | 0.00 | 0.00 | 0.00 | 99 | 1018.2 |
| 20260901071155 | 50 | 316 | 0.0 | 0.0 | 0.00 | 0.00 | 0.00 | 99 | 1018.4 |
| 20260901070649 | 49 | 316 | 0.0 | 0.0 | 0.00 | 0.00 | 0.00 | 99 | 1018.2 |
| 20260901070144 | 50 | 316 | 0.0 | 0.0 | 0.00 | 0.00 | 0.00 | 99 | 1018.2 |
| 20260901065643 | 50 | 316 | 0.0 | 0.0 | 0.00 | 0.00 | 0.00 | 99 | 1018.0 |
| 20260901065138 | 50 | 316 | 0.0 | 0.0 | 0.00 | 0.00 | 0.00 | 99 | 1018.2 |
| 20260901064635 | 50 | 316 | 0.0 | 0.0 | 0.00 | 0.00 | 0.00 | 99 | 1018.1 |
| 20260901064132 | 51 | 316 | 0.0 | 0.0 | 0.00 | 0.00 | 0.00 | 99 | 1018.0 |
| 20260901063629 | 51 | 316 | 0.0 | 0.0 | 0.00 | 0.00 | 0.00 | 99 | 1018.1 |
| 20260901063124 | 51 | 316 | 0.0 | 0.0 | 0.00 | 0.00 | 0.00 | 99 | 1018.1 |
| 20260901062619 | 50 | 315 | 0.0 | 0.0 | 0.00 | 0.00 | 0.00 | 99 | 1018.2 |
| 20260901062115 | 51 | 313 | 0.0 | 0.0 | 0.00 | 0.00 | 0.00 | 99 | 1018.4 |
| 20260901061611 | 51 | 314 | 0.0 | 0.0 | 0.00 | 0.00 | 0.00 | 99 | 1018.3 |
| 20260901061105 | 51 | 313 | 0.0 | 0.0 | 0.00 | 0.00 | 0.00 | 99 | 1018.2 |
| 20260901060600 | 51 | 310 | 0.0 | 0.0 | 0.00 | 0.00 | 0.00 | 99 | 1018.4 |
| 20260901060056 | 51 | 311 | 0.0 | 0.0 | 0.00 | 0.00 | 0.00 | 99 | 1018.5 |
| 20260901055551 | 52 | 315 | 0.0 | 0.0 | 0.00 | 0.00 | 0.00 | 99 | 1018.3 |
| 20260901055048 | 51 | 311 | 0.0 | 0.0 | 0.00 | 0.00 | 0.00 | 99 | 1018.4 |
| 20260901054544 | 51 | 307 | 0.0 | 0.0 | 0.00 | 0.00 | 0.00 | 99 | 1018.5 |
| 20260901054040 | 51 | 319 | 0.0 | 0.0 | 0.00 | 0.00 | 0.00 | 99 | 1018.6 |
| 20260901053536 | 51 | 318 | 0.0 | 0.0 | 0.00 | 0.00 | 0.00 | 99 | 1018.4 |
| 20260901053032 | 51 | 320 | 0.0 | 0.0 | 0.00 | 0.00 | 0.00 | 99 | 1018.6 |
| 20260901052532 | 51 | 322 | 0.0 | 0.0 | 0.00 | 0.00 | 0.00 | 99 | 1018.3 |
| 20260901052031 | 51 | 322 | 0.0 | 0.0 | 0.00 | 0.00 | 0.00 | 99 | 1018.4 |
| 20260901051526 | 51 | 322 | 0.0 | 0.0 | 0.00 | 0.00 | 0.00 | 99 | 1018.4 |
| 20260901051025 | 51 | 322 | 0.0 | 0.0 | 0.00 | 0.00 | 0.00 | 99 | 1018.2 |
| 20260901050521 | 51 | 322 | 0.0 | 0.0 | 0.00 | 0.00 | 0.00 | 99 | 1018.4 |
| 20260901050017 | 51 | 322 | 0.0 | 0.0 | 0.00 | 0.00 | 0.00 | 99 | 1018.3 |
| 20260901045512 | 51 | 322 | 0.0 | 0.0 | 0.00 | 0.00 | 0.00 | 99 | 1018.4 |
| 20260901045012 | 51 | 322 | 0.0 | 0.0 | 0.00 | 0.00 | 0.00 | 99 | 1018.2 |
| 20260901044508 | 51 | 322 | 0.0 | 0.0 | 0.00 | 0.00 | 0.00 | 99 | 1018.4 |
| 20260901044003 | 50 | 322 | 0.0 | 0.0 | 0.00 | 0.00 | 0.00 | 99 | 1018.3 |
| 20260901043459 | 51 | 322 | 0.0 | 0.0 | 0.00 | 0.00 | 0.00 | 99 | 1018.1 |
| 20260901042954 | 51 | 322 | 0.0 | 0.0 | 0.00 | 0.00 | 0.00 | 99 | 1018.2 |
| 20260901042453 | 51 | 322 | 0.0 | 0.0 | 0.00 | 0.00 | 0.00 | 99 | 1018.1 |
| 20260901041949 | 51 | 322 | 0.0 | 0.0 | 0.00 | 0.00 | 0.00 | 99 | 1018.1 |
| 20260901041443 | 51 | 322 | 0.0 | 0.0 | 0.00 | 0.00 | 0.00 | 99 | 1018.2 |
| 20260901040943 | 51 | 322 | 0.0 | 0.0 | 0.00 | 0.00 | 0.00 | 99 | 1018.2 |
| 20260901040433 | 51 | 322 | 0.0 | 0.0 | 0.00 | 0.00 | 0.00 | 99 | 1018.2 |
| 20260901035932 | 52 | 322 | 0.0 | 0.0 | 0.00 | 0.00 | 0.00 | 99 | 1018.2 |
| 20260901035431 | 51 | 322 | 0.0 | 0.0 | 0.00 | 0.00 | 0.00 | 99 | 1018.2 |
| 20260901034929 | 52 | 322 | 0.0 | 0.0 | 0.00 | 0.00 | 0.00 | 99 | 1018.4 |
| 20260901034424 | 52 | 322 | 0.0 | 0.0 | 0.00 | 0.00 | 0.00 | 99 | 1018.3 |
| 20260901033919 | 51 | 322 | 0.0 | 0.0 | 0.00 | 0.00 | 0.00 | 99 | 1018.5 |
| 20260901033418 | 52 | 322 | 0.0 | 0.0 | 0.00 | 0.00 | 0.00 | 99 | 1018.1 |
| 20260901032917 | 52 | 322 | 0.0 | 0.0 | 0.00 | 0.00 | 0.00 | 99 | 1018.5 |
| 20260901032416 | 53 | 328 | 0.0 | 0.0 | 0.00 | 0.00 | 0.00 | 99 | 1018.4 |
| 20260901031912 | 52 | 332 | 0.0 | 0.0 | 0.00 | 0.00 | 0.00 | 99 | 1018.4 |
| 20260901031407 | 52 | 317 | 0.0 | 0.0 | 0.00 | 0.00 | 0.00 | 99 | 1018.5 |
| 20260901030907 | 52 | 318 | 0.0 | 0.0 | 0.00 | 0.00 | 0.00 | 99 | 1018.4 |
| 20260901030402 | 53 | 318 | 0.0 | 0.0 | 0.00 | 0.00 | 0.00 | 99 | 1018.4 |
| 20260901025901 | 53 | 319 | 0.0 | 0.0 | 0.00 | 0.00 | 0.00 | 99 | 1018.3 |
| 20260901025356 | 53 | 319 | 0.0 | 0.0 | 0.00 | 0.00 | 0.00 | 99 | 1018.4 |
| 20260901024851 | 53 | 314 | 0.0 | 0.0 | 0.00 | 0.00 | 0.00 | 99 | 1018.6 |
| 20260901024350 | 53 | 316 | 0.0 | 0.0 | 0.00 | 0.00 | 0.00 | 99 | 1018.3 |
| 20260901023849 | 53 | 313 | 0.0 | 0.0 | 0.00 | 0.00 | 0.00 | 99 | 1018.5 |
| 20260901023344 | 54 | 313 | 0.0 | 0.0 | 0.00 | 0.00 | 0.00 | 99 | 1018.5 |
| 20260901022838 | 53 | 306 | 0.0 | 0.0 | 0.00 | 0.00 | 0.00 | 99 | 1018.4 |
| 20260901022334 | 53 | 316 | 0.0 | 0.0 | 0.00 | 0.00 | 0.00 | 99 | 1018.3 |
| 20260901021830 | 53 | 316 | 0.0 | 0.0 | 0.00 | 0.00 | 0.00 | 99 | 1018.4 |
| 20260901021325 | 53 | 319 | 0.0 | 0.0 | 0.00 | 0.00 | 0.00 | 99 | 1018.6 |
| 20260901020820 | 54 | 317 | 0.0 | 0.0 | 0.00 | 0.00 | 0.00 | 99 | 1018.5 |
| 20260901020315 | 54 | 313 | 0.0 | 0.0 | 0.00 | 0.00 | 0.00 | 99 | 1018.3 |
| 20260901015810 | 54 | 324 | 0.0 | 0.0 | 0.00 | 0.00 | 0.00 | 99 | 1018.6 |
| 20260901015307 | 55 | 324 | 0.0 | 0.0 | 0.00 | 0.00 | 0.00 | 99 | 1018.5 |
| 20260901014805 | 55 | 339 | 0.0 | 0.0 | 0.00 | 0.00 | 0.00 | 99 | 1018.4 |
| 20260901014301 | 55 | 350 | 0.0 | 0.0 | 0.00 | 0.00 | 0.00 | 99 | 1018.3 |
| 20260901013756 | 55 | 315 | 0.0 | 0.0 | 0.00 | 0.00 | 0.00 | 99 | 1018.4 |
| 20260901013252 | 55 | 313 | 0.0 | 0.0 | 0.00 | 0.00 | 0.00 | 99 | 1018.3 |
| 20260901012742 | 55 | 322 | 0.0 | 0.0 | 0.00 | 0.00 | 0.00 | 98 | 1018.3 |
| 20260901012242 | 55 | 322 | 0.0 | 0.0 | 0.00 | 0.00 | 0.00 | 98 | 1018.1 |
| 20260901011737 | 55 | 322 | 0.0 | 0.0 | 0.00 | 0.00 | 0.00 | 98 | 1017.9 |
| 20260901011232 | 55 | 322 | 0.0 | 0.0 | 0.00 | 0.00 | 0.00 | 98 | 1018.3 |
| 20260901010726 | 56 | 323 | 0.0 | 0.0 | 0.00 | 0.00 | 0.00 | 97 | 1018.1 |
| 20260901010221 | 56 | 324 | 0.0 | 0.0 | 0.00 | 0.00 | 0.00 | 96 | 1018.4 |
| 20260901005714 | 56 | 326 | 0.0 | 0.0 | 0.00 | 0.00 | 0.00 | 96 | 1018.4 |
| 20260901005209 | 56 | 339 | 0.0 | 0.0 | 0.00 | 0.00 | 0.00 | 96 | 1018.2 |
| 20260901004709 | 57 | 311 | 0.0 | 0.0 | 0.00 | 0.00 | 0.00 | 95 | 1018.4 |
| 20260901004203 | 57 | 314 | 0.0 | 0.0 | 0.00 | 0.00 | 0.00 | 94 | 1018.2 |
| 20260901003658 | 58 | 315 | 0.0 | 0.0 | 0.00 | 0.00 | 0.00 | 93 | 1018.3 |
| 20260901003157 | 58 | 314 | 0.0 | 0.0 | 0.00 | 0.00 | 0.00 | 92 | 1018.5 |
| 20260901002651 | 59 | 310 | 0.0 | 0.0 | 0.00 | 0.00 | 0.00 | 91 | 1018.3 |
| 20260901002146 | 60 | 282 | 0.0 | 0.0 | 0.00 | 0.00 | 0.00 | 90 | 1018.2 |
| 20260901001642 | 60 | 304 | 0.0 | 0.0 | 0.00 | 0.00 | 0.00 | 90 | 1018.2 |
| 20260901001137 | 59 | 251 | 0.9 | 0.9 | 0.00 | 0.00 | 0.00 | 90 | 1018.2 |
| 20260901000632 | 59 | 316 | 0.0 | 0.0 | 0.00 | 0.00 | 0.00 | 92 | 1018.2 |
| 20260901000130 | 59 | 305 | 0.0 | 0.0 | 0.00 | 0.00 | 0.00 | 92 | 1017.9 |
| 20260831235621 | 60 | 311 | 0.0 | 0.0 | 0.00 | 0.00 | 0.00 | 90 | 1018.0 |
| 20260831235117 | 60 | 310 | 0.0 | 0.0 | 0.00 | 0.00 | 0.00 | 90 | 1018.2 |
| 20260831234616 | 61 | 286 | 0.0 | 0.0 | 0.00 | 0.00 | 0.00 | 88 | 1018.0 |
| 20260831234112 | 62 | 303 | 0.0 | 0.0 | 0.00 | 0.00 | 0.00 | 87 | 1018.1 |
| 20260831233607 | 61 | 6 | 0.0 | 0.0 | 0.00 | 0.00 | 0.00 | 88 | 1018.2 |
| 20260831233102 | 62 | 342 | 0.0 | 0.0 | 0.00 | 0.00 | 0.00 | 87 | 1018.1 |
| 20260831232557 | 62 | 331 | 0.0 | 0.0 | 0.00 | 0.00 | 0.00 | 85 | 1018.1 |
| 20260831232053 | 63 | 341 | 0.0 | 0.0 | 0.00 | 0.00 | 0.00 | 84 | 1018.1 |
| 20260831231549 | 64 | 286 | 0.0 | 0.0 | 0.00 | 0.00 | 0.00 | 82 | 1018.2 |
| 20260831231044 | 64 | 262 | 0.0 | 0.0 | 0.00 | 0.00 | 0.00 | 81 | 1018.4 |
| 20260831230540 | 64 | 325 | 0.0 | 0.0 | 0.00 | 0.00 | 0.00 | 80 | 1018.2 |
| 20260831230039 | 65 | 161 | 0.0 | 0.0 | 0.00 | 0.00 | 0.00 | 78 | 1018.4 |
| 20260831225535 | 66 | 114 | 1.7 | 1.7 | 0.00 | 0.00 | 0.00 | 76 | 1018.1 |
| 20260831225030 | 67 | 320 | 0.0 | 0.0 | 0.00 | 0.00 | 0.00 | 74 | 1018.0 |
| 20260831224525 | 67 | 298 | 0.0 | 0.0 | 0.00 | 0.00 | 0.00 | 72 | 1018.2 |
| 20260831224021 | 67 | 315 | 0.0 | 0.0 | 0.00 | 0.00 | 0.00 | 71 | 1018.1 |
| 20260831223515 | 68 | 45 | 0.0 | 0.9 | 0.00 | 0.00 | 0.00 | 69 | 1018.3 |
| 20260831223012 | 68 | 65 | 0.9 | 0.9 | 0.00 | 0.00 | 0.00 | 68 | 1018.2 |
| 20260831222508 | 68 | 332 | 0.9 | 1.7 | 0.00 | 0.00 | 0.00 | 68 | 1018.3 |
| 20260831222007 | 69 | 251 | 0.9 | 0.9 | 0.00 | 0.00 | 0.00 | 68 | 1018.1 |
| 20260831221504 | 69 | 329 | 0.9 | 0.9 | 0.00 | 0.00 | 0.00 | 67 | 1018.3 |
| 20260831220958 | 70 | 88 | 0.0 | 0.0 | 0.00 | 0.00 | 0.00 | 66 | 1018.2 |
| 20260831220454 | 70 | 81 | 0.9 | 0.9 | 0.00 | 0.00 | 0.00 | 67 | 1018.2 |
| 20260831215949 | 71 | 315 | 0.0 | 0.9 | 0.00 | 0.00 | 0.00 | 64 | 1018.2 |
| 20260831215444 | 71 | 309 | 0.0 | 0.0 | 0.00 | 0.00 | 0.00 | 65 | 1018.0 |
| 20260831214940 | 71 | 9 | 1.7 | 2.6 | 0.00 | 0.00 | 0.00 | 65 | 1018.2 |
| 20260831214437 | 72 | 198 | 1.7 | 2.6 | 0.00 | 0.00 | 0.00 | 63 | 1018.2 |
| 20260831213933 | 72 | 261 | 1.7 | 2.6 | 0.00 | 0.00 | 0.00 | 61 | 1018.4 |
| 20260831213429 | 72 | 292 | 0.9 | 0.9 | 0.00 | 0.00 | 0.00 | 62 | 1018.2 |
| 20260831212929 | 73 | 341 | 0.9 | 0.9 | 0.00 | 0.00 | 0.00 | 63 | 1018.2 |
| 20260831212426 | 73 | 312 | 0.9 | 1.7 | 0.00 | 0.00 | 0.00 | 60 | 1018.1 |
| 20260831211925 | 74 | 204 | 3.5 | 3.5 | 0.00 | 0.00 | 0.00 | 58 | 1018.1 |
| 20260831211420 | 74 | 300 | 0.0 | 0.0 | 0.00 | 0.00 | 0.00 | 58 | 1018.3 |
| 20260831210914 | 75 | 336 | 0.9 | 0.9 | 0.00 | 0.00 | 0.00 | 56 | 1018.2 |
| 20260831210410 | 74 | 300 | 0.0 | 0.9 | 0.00 | 0.00 | 0.00 | 59 | 1018.3 |
| 20260831205905 | 73 | 161 | 1.7 | 1.7 | 0.00 | 0.00 | 0.00 | 59 | 1018.2 |
| 20260831205401 | 74 | 297 | 2.6 | 3.5 | 0.00 | 0.00 | 0.00 | 59 | 1018.3 |